Starlink 11313

operational
NORAD ID: 61255 Int'l Des: 2024-175 Owner: SPXS Country: US Constellation: starlink
LEOCIRCULAR

Starlink 11313について

説明を読み込み中...

リアルタイム位置

3D地球を読み込み中...

次回通過

高度履歴

Altitude vs Time

uPlot chart will show altitude changes over time

軌道要素

1 61255U 24175N 25306.46729132 .00000777 00000-0 11274-4 0 9998
2 61255 53.1596 323.5027 0001783 78.0628 282.0590 15.69716422 63381
Epoch: Nov 2, 2025 • Age: 12 hours

現在のステータス

高度 376.9 km
速度 7.68 km/s
衛星直下点 -47.45°S, 123.03°W
打ち上げ日 Sep 25, 2024
運用期間 1.1 years
タイプ internet

技術仕様

分類 Payload
質量 960.00 kg
乾燥質量 910.00 kg
総質量 960.00 kg
長さ 0.30 m
直径 4.10 m
スパン 29.00 m
形状 Box + pan
製造者 SPXS
バスタイプ Starlink V2MD
フェーズステータス In Orbit
所有者/国 SPXS/US

大規模コンステレーション

Loading constellations...